Wind_Speed
41 41 41 42 42 42 42 40 39 37 36 36 34 31 29 28 29 29 30 31 31 32 32 32 31 31 30 29 27 27 27 26 26 27 29 28 29 30 32 32 31 32 33
45 44 44 44 44 43 43 41 39 37 36 35 34 32 29 28 27 27 26 26 26 26 26 27 27 26 25 25 24 24 24 25 26 28 28 28 30 30 31 31 31 31 31
50 48 48 47 45 44 43 41 39 37 35 34 34 32 29 27 26 25 23 23 22 22 22 23 24 24 23 23 24 24 24 25 26 26 26 27 28 27 27 27 27 27 28
54 53 52 50 49 46 44 42 40 38 35 34 33 31 28 27 26 24 22 21 20 20 21 22 22 22 22 22 23 23 24 24 25 23 22 22 21 21 21 21 21 21 22
58 58 56 54 53 50 47 44 42 39 35 33 32 31 28 26 24 23 21 19 18 19 19 20 21 22 22 21 22 22 21 20 19 19 18 18 18 18 18 18 18 19 19
63 62 61 59 57 55 52 48 44 40 36 33 32 30 28 25 23 22 20 18 18 18 19 20 20 20 19 19 19 19 18 17 17 18 18 17 17 16 16 16 16 17 19
69 68 66 64 62 59 55 50 46 42 38 34 32 29 27 24 21 20 20 19 19 19 18 17 17 17 15 16 17 17 16 16 15 15 14 13 13 13 13 15 16 18 19
76 74 72 70 67 63 57 50 46 42 38 35 32 29 26 23 20 19 18 16 17 18 18 16 15 15 15 15 15 15 15 13 12 12 11 11 11 11 12 13 14 15 17
80 77 74 71 67 63 56 49 46 43 40 36 32 29 26 23 20 18 16 15 14 15 15 15 14 14 15 14 14 13 13 12 11 10 9 9 9 10 10 12 13 15 17
71 67 63 61 59 57 54 49 47 44 41 38 33 30 27 24 21 19 16 15 14 14 14 14 13 13 14 14 13 12 12 11 10 9 8 8 7 8 9 10 12 14 16
52 49 46 46 47 48 50 49 48 45 43 39 34 31 28 25 22 19 17 15 15 14 14 14 13 13 14 13 12 12 11 10 9 8 7 6 6 7 8 9 11 13 15
35 33 33 33 34 38 44 48 48 46 44 40 35 31 29 26 22 20 18 16 14 14 15 15 15 15 14 13 12 11 10 10 9 8 7 6 6 6 7 8 10 11 12
31 30 30 30 30 31 38 47 50 46 44 41 36 32 30 26 23 20 18 16 15 14 15 16 16 15 14 13 12 11 11 10 9 8 6 5 5 5 6 7 7 9 11
34 33 32 31 30 30 34 45 50 47 44 42 37 33 30 27 23 21 19 17 17 16 16 16 16 15 14 13 12 12 11 10 9 7 6 5 4 4 4 4 5 7 10
38 35 33 31 30 30 33 44 50 45 42 41 37 32 29 26 24 22 20 19 18 18 18 17 16 15 15 14 13 13 11 10 8 7 6 5 4 4 2 1 4 6 9
38 35 33 32 30 31 33 42 49 46 42 41 37 33 31 29 27 24 22 21 20 19 19 18 17 16 15 14 13 13 12 10 9 8 6 6 5 4 3 1 3 6 9
36 33 32 31 29 28 31 40 46 46 43 43 38 36 33 30 27 25 24 22 21 20 19 18 17 16 15 14 14 13 12 11 10 9 7 7 6 6 4 2 3 6 9
34 31 29 28 27 25 29 38 43 43 43 42 40 37 34 31 29 27 25 22 21 19 18 17 16 15 14 14 14 14 13 12 11 9 9 8 8 8 7 5 5 6 8
30 27 26 25 23 23 29 36 40 42 44 43 40 37 34 32 30 28 24 22 21 20 18 17 16 15 14 14 14 14 13 13 12 11 10 10 11 10 10 9 8 9 10
26 24 23 21 21 25 31 36 39 43 45 44 41 37 34 31 28 26 24 22 20 19 17 15 14 13 13 13 13 14 14 13 13 12 12 13 14 14 13 13 13 13 13
23 22 20 20 23 27 33 36 38 42 43 42 39 36 33 31 29 28 26 23 20 18 16 14 13 12 12 12 13 14 14 15 15 15 15 15 16 17 17 17 17 17 17
22 21 21 23 26 30 33 36 39 42 42 40 39 36 34 33 31 29 26 23 20 17 14 13 13 13 13 13 14 15 16 16 16 17 17 18 18 19 19 20 20 20 20
22 22 24 28 30 32 35 37 38 40 40 38 37 34 32 31 29 27 24 21 18 15 15 14 14 15 15 15 15 15 16 17 18 19 19 20 20 21 22 22 22 22 22
23 27 30 32 33 33 35 37 37 38 39 37 35 32 31 30 28 26 23 20 17 15 14 15 15 16 16 16 17 17 17 18 18 19 20 20 21 22 23 24 23 23 23
31 34 34 34 33 34 35 36 36 36 36 35 32 30 29 28 26 24 21 19 17 15 14 15 16 17 17 17 17 17 17 17 18 19 20 21 22 22 23 24 23 23 24
36 36 35 34 34 34 34 33 32 32 34 33 30 28 27 25 23 22 20 18 16 15 14 15 16 16 17 17 17 17 16 17 17 18 19 20 21 22 22 22 22 23 24
Wind_Direction
303 305 305 306 308 309 311 312 314 315 317 318 316 311 305 301 295 287 279 273 268 264 263 263 263 263 260 258 255 252 249 246 241 238 241 244 246 247 249 253 252 251 248
300 302 303 304 305 306 307 308 309 311 313 315 315 311 307 304 301 294 285 277 270 264 261 259 259 257 253 249 247 244 240 236 236 239 242 243 245 247 250 252 251 250 249
297 299 300 301 302 303 305 305 306 307 309 312 313 311 308 305 303 297 290 280 269 260 254 252 252 249 246 242 239 236 233 233 233 237 240 243 244 246 248 248 249 248 248
294 296 297 297 298 300 301 302 303 303 304 307 309 308 306 305 303 297 290 280 268 256 247 245 244 240 232 226 226 227 225 226 227 230 232 234 238 241 243 246 247 249 251
290 292 293 293 294 296 297 298 299 298 298 300 304 304 302 302 302 297 290 277 266 255 244 239 235 230 226 225 223 220 219 219 221 223 226 230 235 240 244 248 252 255 257
286 286 288 289 289 290 291 292 292 292 291 293 296 298 297 296 297 296 289 274 262 254 248 240 235 232 230 227 219 216 218 219 222 224 227 232 237 243 248 252 257 261 264
282 282 282 283 284 284 285 284 284 284 283 284 287 290 290 289 291 290 285 271 260 256 249 240 234 232 229 225 218 214 215 217 220 222 227 232 239 247 255 262 265 267 268
279 279 278 278 278 278 277 276 274 274 274 275 278 281 282 281 283 283 278 269 258 254 249 241 234 231 226 221 215 212 211 213 216 221 229 238 249 258 263 265 266 269 272
279 278 276 274 273 271 268 265 263 264 264 265 268 271 272 270 272 276 272 263 255 245 237 230 223 219 215 212 209 207 207 209 214 223 232 242 250 256 261 266 272 276 280
279 277 275 272 268 264 259 253 252 253 255 256 258 260 262 260 261 265 265 256 247 236 228 221 214 208 204 202 200 200 202 207 214 220 227 235 246 258 269 277 283 287 290
277 273 270 268 265 258 250 242 240 243 245 248 248 251 252 251 252 257 257 249 238 228 218 209 202 197 195 195 197 198 200 204 208 212 217 230 249 266 280 289 297 301 302
273 269 266 266 265 256 243 232 229 233 237 241 241 242 243 244 245 248 248 240 228 216 208 203 199 195 195 196 197 198 199 201 204 208 218 236 255 276 292 302 310 316 321
275 272 268 268 267 261 242 226 222 225 228 234 235 234 234 236 238 240 235 225 214 204 199 195 193 193 195 196 197 198 200 203 208 215 227 246 268 289 305 318 330 339 343
276 273 271 270 267 266 247 226 219 218 221 226 228 225 225 228 231 231 222 211 203 197 193 190 190 193 195 197 198 201 205 208 214 222 234 250 270 288 307 333 355 1 2
275 273 270 268 264 265 252 228 218 211 211 216 218 216 217 222 223 220 212 202 196 192 191 191 193 197 199 201 203 206 209 213 219 228 236 246 257 266 276 6 16 12 10
271 268 265 264 262 263 251 228 215 207 206 205 205 205 207 213 215 212 204 196 191 189 191 193 196 199 201 204 208 211 215 220 227 231 235 240 242 235 217 205 3 3 3
268 264 262 259 261 258 241 221 211 205 201 197 198 199 202 207 207 205 200 194 191 191 192 195 198 202 206 209 212 215 220 226 231 232 234 237 234 226 222 246 327 349 354
261 258 256 253 255 245 226 212 205 200 194 192 194 196 199 200 200 200 196 194 194 194 196 198 201 204 207 211 215 218 223 228 231 233 235 237 238 237 241 260 297 325 340
250 249 245 246 242 223 208 202 199 194 189 189 190 193 196 196 196 194 192 192 193 195 197 200 204 208 211 215 219 222 225 228 231 234 237 241 245 249 256 267 284 303 319
238 234 233 231 214 202 198 194 192 189 187 186 187 191 194 193 191 188 189 191 191 192 195 201 208 213 217 220 223 225 228 232 235 238 243 247 252 257 264 273 282 293 305
219 216 216 205 192 189 189 187 183 183 183 183 185 188 189 188 187 187 189 190 191 193 198 206 213 220 224 227 230 232 234 238 241 244 249 254 259 263 269 276 283 289 297
199 197 191 182 177 177 179 179 179 179 181 182 185 187 188 187 187 187 189 191 193 198 206 215 223 230 234 237 239 241 242 244 247 251 254 258 263 267 271 276 282 288 293
177 173 170 167 166 166 170 172 175 178 180 181 183 186 187 187 188 188 190 193 198 206 214 223 231 238 241 243 244 245 247 250 253 256 259 261 264 268 272 277 282 287 293
156 155 156 158 159 160 164 170 174 176 178 180 182 184 185 186 188 190 193 197 203 210 219 228 237 243 245 246 248 248 251 256 259 260 262 264 267 270 273 277 281 287 292
143 144 147 151 153 157 163 169 173 175 178 178 180 182 184 185 188 192 196 200 207 218 229 238 243 244 245 246 248 251 256 260 262 264 265 268 271 273 275 278 282 286 291
136 139 142 147 150 154 160 166 170 174 177 177 179 181 184 187 191 193 196 203 214 226 237 246 245 243 244 244 247 252 258 263 266 268 270 272 275 277 279 280 283 287 292
Height
5769 5767 5764 5760 5757 5754 5750 5747 5743 5738 5733 5728 5723 5719 5715 5712 5709 5707 5706 5705 5705 5705 5705 5705 5706 5708 5709 5711 5713 5715 5717 5720 5722 5725 5727 5729 5731 5732 5734 5735 5737 5739 5741
5758 5756 5753 5750 5747 5744 5741 5738 5735 5731 5726 5721 5717 5712 5709 5705 5702 5700 5698 5696 5696 5696 5696 5697 5698 5699 5701 5703 5705 5707 5710 5712 5715 5718 5720 5723 5724 5726 5727 5728 5730 5732 5734
5745 5743 5741 5739 5736 5734 5731 5728 5726 5723 5719 5715 5710 5706 5702 5699 5696 5693 5691 5689 5688 5688 5689 5690 5691 5693 5694 5697 5699 5701 5703 5706 5709 5711 5714 5716 5718 5719 5720 5722 5724 5725 5727
5732 5730 5729 5727 5725 5723 5721 5719 5717 5714 5711 5707 5703 5700 5696 5693 5690 5687 5685 5683 5682 5682 5683 5684 5685 5687 5689 5691 5694 5696 5698 5700 5703 5705 5708 5710 5712 5713 5715 5717 5719 5721 5722
5717 5716 5715 5714 5712 5711 5710 5709 5707 5705 5703 5700 5697 5693 5690 5687 5684 5682 5680 5679 5678 5678 5679 5679 5681 5682 5685 5687 5689 5691 5693 5695 5698 5700 5702 5705 5707 5709 5711 5712 5714 5716 5717
5701 5700 5699 5698 5698 5698 5697 5697 5696 5695 5693 5691 5689 5686 5684 5681 5679 5677 5675 5674 5674 5674 5675 5675 5677 5678 5680 5683 5684 5687 5689 5691 5694 5696 5698 5700 5703 5705 5707 5708 5710 5711 5712
5683 5681 5680 5680 5681 5682 5683 5684 5684 5684 5683 5682 5681 5679 5677 5675 5673 5672 5670 5669 5670 5670 5670 5671 5673 5675 5677 5678 5680 5682 5685 5688 5690 5693 5695 5697 5699 5701 5703 5704 5705 5706 5706
5660 5659 5659 5659 5661 5663 5666 5668 5669 5671 5671 5671 5671 5670 5670 5668 5667 5666 5665 5664 5665 5665 5666 5667 5669 5671 5673 5675 5677 5679 5682 5684 5687 5689 5692 5694 5695 5697 5699 5700 5700 5701 5701
5632 5632 5633 5634 5637 5641 5645 5650 5653 5656 5658 5660 5661 5661 5661 5661 5661 5661 5660 5660 5660 5661 5662 5663 5665 5667 5669 5671 5674 5676 5679 5681 5684 5686 5688 5690 5692 5694 5695 5696 5696 5696 5695
5603 5604 5605 5607 5611 5616 5623 5630 5636 5640 5643 5647 5650 5651 5652 5654 5654 5655 5655 5655 5656 5656 5658 5659 5661 5664 5666 5669 5671 5674 5676 5679 5681 5683 5686 5687 5689 5690 5691 5691 5691 5690 5690
5578 5580 5582 5584 5588 5593 5600 5609 5617 5623 5628 5633 5638 5641 5643 5645 5647 5648 5649 5650 5651 5652 5654 5656 5658 5661 5664 5666 5669 5672 5674 5677 5679 5681 5683 5685 5686 5687 5687 5686 5686 5685 5684
5561 5563 5564 5566 5569 5572 5579 5588 5598 5606 5613 5619 5625 5630 5633 5636 5639 5641 5643 5645 5646 5647 5650 5652 5655 5658 5661 5664 5667 5670 5672 5675 5677 5679 5681 5682 5683 5683 5683 5682 5681 5680 5678
5549 5550 5551 5552 5554 5557 5561 5569 5579 5588 5598 5606 5613 5619 5624 5628 5631 5634 5637 5639 5641 5643 5646 5649 5652 5655 5659 5662 5665 5668 5670 5673 5675 5677 5678 5679 5679 5679 5679 5678 5677 5676 5674
5536 5537 5538 5540 5541 5543 5547 5553 5562 5572 5584 5593 5602 5609 5614 5620 5624 5628 5631 5634 5637 5639 5642 5646 5649 5653 5656 5660 5663 5666 5668 5670 5672 5674 5675 5676 5676 5676 5676 5675 5674 5673 5671
5522 5524 5525 5526 5528 5531 5533 5538 5547 5557 5570 5582 5591 5599 5607 5613 5618 5622 5626 5629 5632 5636 5639 5643 5647 5650 5654 5657 5660 5663 5665 5667 5669 5671 5672 5673 5673 5673 5672 5672 5671 5670 5668
5507 5509 5511 5513 5516 5518 5519 5525 5535 5547 5559 5570 5581 5590 5599 5605 5610 5616 5621 5625 5629 5632 5636 5640 5644 5647 5651 5655 5658 5660 5662 5664 5666 5668 5669 5669 5669 5670 5669 5669 5668 5667 5665
5491 5494 5497 5500 5503 5505 5508 5515 5526 5538 5550 5561 5572 5582 5591 5598 5605 5611 5616 5621 5625 5629 5633 5637 5640 5644 5648 5651 5654 5657 5659 5661 5663 5664 5665 5666 5666 5666 5666 5665 5664 5663 5662
5477 5481 5484 5487 5491 5495 5499 5508 5519 5531 5542 5554 5565 5576 5585 5593 5600 5606 5612 5618 5622 5626 5630 5634 5637 5641 5645 5648 5651 5653 5656 5657 5659 5660 5661 5662 5663 5663 5663 5662 5661 5660 5659
5463 5468 5472 5477 5481 5486 5494 5503 5514 5526 5538 5549 5561 5571 5580 5588 5595 5602 5609 5614 5619 5623 5627 5631 5635 5638 5641 5644 5647 5649 5652 5654 5655 5656 5657 5658 5658 5659 5659 5658 5658 5657 5655
5451 5457 5463 5468 5474 5481 5490 5500 5511 5523 5535 5546 5557 5568 5577 5585 5593 5600 5606 5612 5616 5621 5625 5628 5632 5635 5638 5641 5643 5646 5648 5649 5651 5652 5652 5653 5654 5654 5654 5654 5653 5652 5651
5442 5449 5456 5463 5471 5479 5489 5500 5511 5522 5533 5545 5556 5566 5575 5584 5591 5597 5603 5609 5614 5619 5623 5626 5629 5632 5635 5637 5639 5641 5643 5645 5646 5647 5648 5648 5649 5649 5649 5649 5648 5647 5646
5436 5445 5452 5461 5470 5480 5490 5501 5511 5522 5533 5544 5554 5563 5572 5580 5587 5594 5601 5607 5612 5616 5620 5624 5626 5629 5631 5633 5635 5637 5638 5639 5640 5641 5642 5643 5643 5643 5643 5643 5642 5641 5640
5435 5443 5452 5462 5473 5483 5493 5503 5513 5523 5534 5544 5554 5563 5571 5580 5587 5594 5600 5605 5610 5614 5618 5621 5623 5625 5627 5629 5630 5632 5633 5634 5635 5635 5636 5636 5636 5637 5637 5636 5636 5635 5634
5438 5447 5456 5467 5477 5487 5497 5507 5516 5526 5536 5545 5555 5563 5571 5579 5586 5592 5598 5603 5608 5611 5615 5617 5619 5621 5623 5624 5625 5626 5627 5628 5629 5629 5630 5630 5630 5630 5630 5630 5629 5628 5627
5445 5454 5464 5474 5484 5493 5502 5511 5520 5529 5538 5547 5556 5564 5571 5579 5585 5591 5596 5601 5605 5608 5611 5613 5615 5616 5618 5619 5620 5621 5622 5622 5623 5623 5623 5624 5624 5624 5623 5623 5622 5621 5620
5456 5465 5474 5483 5491 5500 5508 5516 5525 5533 5541 5550 5558 5565 5572 5578 5584 5590 5594 5599 5602 5605 5607 5609 5610 5612 5613 5614 5615 5616 5617 5617 5617 5617 5617 5618 5617 5617 5616 5616 5615 5614 5613